Time,TemperatureF,DewpointF,PressureIn,WindDirection,WindDirectionDegrees,WindSpeedMPH,WindSpeedGustMPH,Humidity,HourlyPrecipIn,Conditions,Clouds,dailyrainin,SoftwareType,DateUTC
2013-03-15 00:06:00,49.0,41.0,30.26,South,178,0.0,1.0,73,0.00,,,0.00,weatherlink.com 1.10,2013-03-15 05:06:00,
2013-03-15 00:21:00,48.7,40.0,30.26,South,177,0.0,1.0,73,0.00,,,0.00,weatherlink.com 1.10,2013-03-15 05:21:00,
2013-03-15 00:36:00,49.1,39.0,30.26,South,173,0.0,2.0,69,0.00,,,0.00,weatherlink.com 1.10,2013-03-15 05:36:00,
2013-03-15 00:51:00,49.6,39.0,30.25,SSW,195,0.0,3.0,66,0.00,,,0.00,weatherlink.com 1.10,2013-03-15 05:51:00,
2013-03-15 01:06:00,49.7,38.0,30.25,SSE,164,1.0,2.0,65,0.00,,,0.00,weatherlink.com 1.10,2013-03-15 06:06:00,
2013-03-15 01:36:00,50.3,38.0,30.25,South,169,0.0,2.0,63,0.00,,,0.00,weatherlink.com 1.10,2013-03-15 06:36:00,
2013-03-15 01:51:00,49.9,38.0,30.25,SSW,211,1.0,2.0,64,0.00,,,0.00,weatherlink.com 1.10,2013-03-15 06:51:00,
2013-03-15 02:06:00,49.3,38.0,30.24,South,185,0.0,2.0,66,0.00,,,0.00,weatherlink.com 1.10,2013-03-15 07:06:00,
2013-03-15 02:21:00,49.0,39.0,30.24,SSW,212,1.0,3.0,68,0.00,,,0.00,weatherlink.com 1.10,2013-03-15 07:21:00,
2013-03-15 02:37:00,48.7,39.0,30.24,SSW,201,0.0,3.0,69,0.00,,,0.00,weatherlink.com 1.10,2013-03-15 07:37:00,
2013-03-15 02:51:00,48.6,40.0,30.23,South,187,0.0,3.0,71,0.00,,,0.00,weatherlink.com 1.10,2013-03-15 07:51:00,
2013-03-15 03:07:00,48.4,40.0,30.23,SW,226,1.0,3.0,73,0.00,,,0.00,weatherlink.com 1.10,2013-03-15 08:07:00,
2013-03-15 03:22:00,48.1,41.0,30.22,SSW,207,0.0,2.0,75,0.00,,,0.00,weatherlink.com 1.10,2013-03-15 08:22:00,
2013-03-15 03:37:00,47.8,41.0,30.21,South,186,0.0,3.0,76,0.00,,,0.00,weatherlink.com 1.10,2013-03-15 08:37:00,
2013-03-15 03:52:00,47.6,41.0,30.21,SW,217,0.0,2.0,77,0.00,,,0.00,weatherlink.com 1.10,2013-03-15 08:52:00,
2013-03-15 04:07:00,47.3,41.0,30.21,WSW,257,0.0,2.0,78,0.00,,,0.00,weatherlink.com 1.10,2013-03-15 09:07:00,
2013-03-15 04:22:00,47.1,41.0,30.20,WSW,239,0.0,3.0,78,0.00,,,0.00,weatherlink.com 1.10,2013-03-15 09:22:00,
2013-03-15 04:37:00,46.9,41.0,30.21,SSW,204,0.0,4.0,79,0.00,,,0.00,weatherlink.com 1.10,2013-03-15 09:37:00,
2013-03-15 04:52:00,46.7,41.0,30.21,West,263,0.0,3.0,80,0.00,,,0.00,weatherlink.com 1.10,2013-03-15 09:52:00,
2013-03-15 05:07:00,46.4,41.0,30.21,WNW,301,0.0,2.0,80,0.00,,,0.00,weatherlink.com 1.10,2013-03-15 10:07:00,
2013-03-15 05:22:00,46.0,41.0,30.21,West,262,0.0,2.0,81,0.00,,,0.00,weatherlink.com 1.10,2013-03-15 10:22:00,
2013-03-15 05:37:00,45.6,40.0,30.21,West,260,0.0,1.0,82,0.00,,,0.00,weatherlink.com 1.10,2013-03-15 10:37:00,
2013-03-15 05:52:00,45.2,40.0,30.21,SW,236,0.0,1.0,83,0.00,,,0.00,weatherlink.com 1.10,2013-03-15 10:52:00,
2013-03-15 06:07:00,45.1,41.0,30.21,SW,232,0.0,1.0,84,0.00,,,0.00,weatherlink.com 1.10,2013-03-15 11:07:00,
2013-03-15 06:22:00,45.0,41.0,30.22,WSW,246,0.0,0.0,85,0.00,,,0.00,weatherlink.com 1.10,2013-03-15 11:22:00,
2013-03-15 06:37:00,44.8,41.0,30.22,West,266,0.0,1.0,85,0.00,,,0.00,weatherlink.com 1.10,2013-03-15 11:37:00,
2013-03-15 06:52:00,44.6,41.0,30.23,SW,219,0.0,2.0,86,0.00,,,0.00,weatherlink.com 1.10,2013-03-15 11:52:00,
2013-03-15 07:07:00,44.3,40.0,30.23,SW,219,0.0,1.0,86,0.00,,,0.00,weatherlink.com 1.10,2013-03-15 12:07:00,
2013-03-15 07:22:00,44.0,40.0,30.23,SW,219,0.0,1.0,87,0.00,,,0.00,weatherlink.com 1.10,2013-03-15 12:22:00,
2013-03-15 07:37:00,43.9,41.0,30.24,SW,219,0.0,0.0,88,0.00,,,0.00,weatherlink.com 1.10,2013-03-15 12:37:00,
2013-03-15 07:53:00,44.4,41.0,30.24,SSW,203,1.0,1.0,88,0.00,,,0.00,weatherlink.com 1.10,2013-03-15 12:53:00,
2013-03-15 08:07:00,45.5,42.0,30.25,SW,218,0.0,1.0,87,0.00,,,0.00,weatherlink.com 1.10,2013-03-15 13:07:00,
2013-03-15 08:22:00,47.0,43.0,30.25,SSW,204,0.0,1.0,86,0.00,,,0.00,weatherlink.com 1.10,2013-03-15 13:22:00,
2013-03-15 08:37:00,49.2,44.0,30.25,WNW,284,3.0,4.0,83,0.00,,,0.00,weatherlink.com 1.10,2013-03-15 13:37:00,
2013-03-15 08:52:00,51.5,46.0,30.25,SSW,203,2.0,4.0,80,0.00,,,0.00,weatherlink.com 1.10,2013-03-15 13:52:00,
2013-03-15 09:07:00,53.4,46.0,30.25,West,259,0.0,6.0,77,0.00,,,0.00,weatherlink.com 1.10,2013-03-15 14:07:00,
2013-03-15 09:22:00,55.0,47.0,30.26,SSE,149,3.0,5.0,75,0.00,,,0.00,weatherlink.com 1.10,2013-03-15 14:22:00,
2013-03-15 09:37:00,56.7,47.0,30.26,SW,233,1.0,5.0,71,0.00,,,0.00,weatherlink.com 1.10,2013-03-15 14:37:00,
2013-03-15 09:52:00,58.4,47.0,30.26,SW,229,4.0,7.0,66,0.00,,,0.00,weatherlink.com 1.10,2013-03-15 14:52:00,
2013-03-15 10:07:00,60.2,45.0,30.26,West,264,3.0,5.0,57,0.00,,,0.00,weatherlink.com 1.10,2013-03-15 15:07:00,
2013-03-15 10:23:00,61.4,42.0,30.25,West,281,3.0,7.0,50,0.00,,,0.00,weatherlink.com 1.10,2013-03-15 15:23:00,
2013-03-15 10:38:00,62.7,39.0,30.25,NW,311,1.0,8.0,42,0.00,,,0.00,weatherlink.com 1.10,2013-03-15 15:38:00,
2013-03-15 10:54:00,64.1,38.0,30.24,East,87,1.0,6.0,38,0.00,,,0.00,weatherlink.com 1.10,2013-03-15 15:54:00,
2013-03-15 11:08:00,65.6,38.0,30.24,WSW,256,1.0,5.0,37,0.00,,,0.00,weatherlink.com 1.10,2013-03-15 16:08:00,
2013-03-15 11:23:00,66.1,38.0,30.23,SW,218,1.0,8.0,36,0.00,,,0.00,weatherlink.com 1.10,2013-03-15 16:23:00,
2013-03-15 11:38:00,66.5,40.0,30.22,South,190,2.0,8.0,38,0.00,,,0.00,weatherlink.com 1.10,2013-03-15 16:38:00,
2013-03-15 11:53:00,68.6,40.0,30.22,SSW,208,3.0,8.0,35,0.00,,,0.00,weatherlink.com 1.10,2013-03-15 16:53:00,
2013-03-15 12:08:00,69.0,39.0,30.21,WSW,255,1.0,7.0,33,0.00,,,0.00,weatherlink.com 1.10,2013-03-15 17:08:00,
2013-03-15 12:23:00,69.8,39.0,30.20,NNW,331,2.0,7.0,33,0.00,,,0.00,weatherlink.com 1.10,2013-03-15 17:23:00,
2013-03-15 12:38:00,70.5,40.0,30.20,SSW,198,0.0,9.0,33,0.00,,,0.00,weatherlink.com 1.10,2013-03-15 17:38:00,
2013-03-15 12:53:00,71.1,40.0,30.19,WNW,285,1.0,10.0,33,0.00,,,0.00,weatherlink.com 1.10,2013-03-15 17:53:00,
2013-03-15 13:08:00,71.9,41.0,30.18,WSW,253,2.0,13.0,33,0.00,,,0.00,weatherlink.com 1.10,2013-03-15 18:08:00,
2013-03-15 13:23:00,72.7,42.0,30.17,WNW,298,1.0,9.0,33,0.00,,,0.00,weatherlink.com 1.10,2013-03-15 18:23:00,
2013-03-15 13:38:00,72.9,43.0,30.16,West,281,2.0,10.0,34,0.00,,,0.00,weatherlink.com 1.10,2013-03-15 18:38:00,
2013-03-15 14:08:00,74.5,41.0,30.13,South,169,3.0,10.0,30,0.00,,,0.00,weatherlink.com 1.10,2013-03-15 19:08:00,
2013-03-15 14:23:00,74.5,43.0,30.12,NW,314,2.0,11.0,32,0.00,,,0.00,weatherlink.com 1.10,2013-03-15 19:23:00,
2013-03-15 14:38:00,75.2,43.0,30.11,South,188,5.0,10.0,32,0.00,,,0.00,weatherlink.com 1.10,2013-03-15 19:38:00,
2013-03-15 14:53:00,75.8,42.0,30.10,SW,220,6.0,10.0,30,0.00,,,0.00,weatherlink.com 1.10,2013-03-15 19:53:00,
2013-03-15 15:08:00,76.1,42.0,30.10,SE,139,1.0,10.0,30,0.00,,,0.00,weatherlink.com 1.10,2013-03-15 20:08:00,
2013-03-15 15:24:00,76.2,42.0,30.09,SSW,212,3.0,10.0,29,0.00,,,0.00,weatherlink.com 1.10,2013-03-15 20:24:00,
2013-03-15 15:39:00,76.8,40.0,30.09,West,273,6.0,10.0,27,0.00,,,0.00,weatherlink.com 1.10,2013-03-15 20:39:00,
2013-03-15 15:54:00,76.5,42.0,30.08,South,170,2.0,10.0,29,0.00,,,0.00,weatherlink.com 1.10,2013-03-15 20:54:00,
2013-03-15 16:10:00,76.6,42.0,30.08,WSW,242,4.0,9.0,29,0.00,,,0.00,weatherlink.com 1.10,2013-03-15 21:10:00,
2013-03-15 16:24:00,76.9,43.0,30.08,WSW,256,2.0,6.0,30,0.00,,,0.00,weatherlink.com 1.10,2013-03-15 21:24:00,
2013-03-15 16:39:00,77.1,43.0,30.07,NW,311,4.0,6.0,30,0.00,,,0.00,weatherlink.com 1.10,2013-03-15 21:39:00,
2013-03-15 16:54:00,77.2,43.0,30.07,West,270,2.0,10.0,30,0.00,,,0.00,weatherlink.com 1.10,2013-03-15 21:54:00,
2013-03-15 17:09:00,77.0,42.0,30.07,West,270,5.0,10.0,29,0.00,,,0.00,weatherlink.com 1.10,2013-03-15 22:09:00,
2013-03-15 17:24:00,77.2,43.0,30.07,SSW,210,1.0,9.0,29,0.00,,,0.00,weatherlink.com 1.10,2013-03-15 22:24:00,
2013-03-15 17:39:00,76.5,43.0,30.07,SSE,159,2.0,7.0,30,0.00,,,0.00,weatherlink.com 1.10,2013-03-15 22:39:00,
2013-03-15 17:54:00,76.0,41.0,30.07,SW,226,4.0,11.0,29,0.00,,,0.00,weatherlink.com 1.10,2013-03-15 22:54:00,
2013-03-15 18:09:00,75.3,43.0,30.07,WSW,245,1.0,7.0,31,0.00,,,0.00,weatherlink.com 1.10,2013-03-15 23:09:00,
2013-03-15 18:24:00,75.1,43.0,30.08,WSW,253,2.0,7.0,32,0.00,,,0.00,weatherlink.com 1.10,2013-03-15 23:24:00,
2013-03-15 18:39:00,74.1,44.0,30.08,WNW,302,1.0,5.0,34,0.00,,,0.00,weatherlink.com 1.10,2013-03-15 23:39:00,
2013-03-15 18:54:00,72.2,44.0,30.08,South,190,2.0,4.0,37,0.00,,,0.00,weatherlink.com 1.10,2013-03-15 23:54:00,
2013-03-15 19:09:00,70.3,44.0,30.08,SSE,165,1.0,3.0,39,0.00,,,0.00,weatherlink.com 1.10,2013-03-16 00:09:00,
2013-03-15 19:24:00,68.9,44.0,30.08,South,186,2.0,2.0,41,0.00,,,0.00,weatherlink.com 1.10,2013-03-16 00:24:00,
2013-03-15 19:39:00,67.8,44.0,30.08,South,177,2.0,4.0,42,0.00,,,0.00,weatherlink.com 1.10,2013-03-16 00:39:00,
2013-03-15 19:54:00,67.0,45.0,30.08,South,177,3.0,6.0,46,0.00,,,0.00,weatherlink.com 1.10,2013-03-16 00:54:00,
2013-03-15 20:09:00,66.4,46.0,30.08,South,173,3.0,5.0,48,0.00,,,0.00,weatherlink.com 1.10,2013-03-16 01:09:00,
2013-03-15 20:24:00,65.9,46.0,30.08,NNW,329,0.0,6.0,49,0.00,,,0.00,weatherlink.com 1.10,2013-03-16 01:24:00,
2013-03-15 20:39:00,65.3,46.0,30.08,SW,232,2.0,6.0,50,0.00,,,0.00,weatherlink.com 1.10,2013-03-16 01:39:00,
2013-03-15 20:54:00,64.7,45.0,30.08,SW,221,1.0,6.0,50,0.00,,,0.00,weatherlink.com 1.10,2013-03-16 01:54:00,
2013-03-15 21:09:00,63.9,46.0,30.09,SW,217,0.0,5.0,52,0.00,,,0.00,weatherlink.com 1.10,2013-03-16 02:09:00,
2013-03-15 21:24:00,63.2,46.0,30.09,SSW,211,1.0,5.0,54,0.00,,,0.00,weatherlink.com 1.10,2013-03-16 02:24:00,
2013-03-15 21:39:00,62.7,46.0,30.09,SSW,201,2.0,5.0,55,0.00,,,0.00,weatherlink.com 1.10,2013-03-16 02:39:00,
2013-03-15 21:54:00,62.0,46.0,30.09,WNW,283,2.0,4.0,57,0.00,,,0.00,weatherlink.com 1.10,2013-03-16 02:54:00,
2013-03-15 22:09:00,61.6,46.0,30.08,South,172,4.0,7.0,57,0.00,,,0.00,weatherlink.com 1.10,2013-03-16 03:09:00,
2013-03-15 22:24:00,61.1,46.0,30.09,West,269,1.0,5.0,59,0.00,,,0.00,weatherlink.com 1.10,2013-03-16 03:24:00,
2013-03-15 22:39:00,60.5,46.0,30.09,SSE,150,2.0,4.0,60,0.00,,,0.00,weatherlink.com 1.10,2013-03-16 03:39:00,
2013-03-15 22:54:00,59.9,46.0,30.09,SSW,200,4.0,6.0,61,0.00,,,0.00,weatherlink.com 1.10,2013-03-16 03:54:00,
2013-03-15 23:09:00,59.5,47.0,30.09,SSW,211,3.0,6.0,63,0.00,,,0.00,weatherlink.com 1.10,2013-03-16 04:09:00,
2013-03-15 23:24:00,59.0,47.0,30.09,WNW,290,1.0,6.0,65,0.00,,,0.00,weatherlink.com 1.10,2013-03-16 04:24:00,
2013-03-15 23:39:00,58.6,48.0,30.08,SSW,205,1.0,7.0,67,0.00,,,0.00,weatherlink.com 1.10,2013-03-16 04:39:00,
2013-03-15 23:54:00,58.2,48.0,30.08,West,260,0.0,10.0,69,0.00,,,0.00,weatherlink.com 1.10,2013-03-16 04:54:00,